www.pogodaiklimat.ru

Погода и климат >> Архив погоды >> Австрия >> Ландекк


ПОГОДА в Ландекке

  • Прогноз погоды в Ландекке
  • Монитор погоды в Ландекке

АРХИВ ПОГОДЫ в Ландекке

Время (UTC), дата Ветер
(напр.,м/с)
 
Видим.   Явления Облачность Т
(С)
Тd
(С)
f
(%)
Тe
(С)
Тes
(С)
Комфортность P
(гПа)
Po
(гПа)
Тmin
(С)
Tmax
(С)
R
(мм)
R24
(мм)
S
(см)
13 18.08 СВ 2 н/о н/о +29.6 +11.6 33 +30 +30 жарко 1006.8 920.1
14 18.08 СВ 1 н/о н/о +29.8 +11.0 31 +30 +30 жарко 1006.4 919.8
15 18.08 СВ 1 н/о н/о +28.7 +12.0 36 +30 +30 жарко 1006.5 919.6
16 18.08 ЮВ 1 н/о н/о +26.5 +15.2 50 +29 +29 жарко 1007.1 919.7
17 18.08 штиль 0 н/о н/о +25.1 +16.2 58 +28 +28 жарко 1008.0 920.1
18 18.08 ЮЗ 1 н/о н/о +24.0 +16.2 62 +27 +27 жарко 1008.5 920.3 +14.7 +31.0
19 18.08 Ю 1 н/о н/о +21.7 +15.7 69 +25 +25 комфорт 1009.9 920.9
20 18.08 ЮЗ 1 н/о н/о +21.1 +14.4 66 +24 +24 комфорт 1010.9 921.6
21 18.08 Ю 1 н/о н/о +19.8 +14.1 70 +23 +23 комфорт 1011.9 922.1
22 18.08 Ю 2 н/о н/о +19.0 +13.8 72 +21 +21 комфорт 1012.7 922.6
23 18.08 ЮЗ 1 н/о н/о +17.9 +12.4 70 +19 +19 1013.8 923.2
00 19.08 ЮВ 1 н/о н/о +18.0 +12.5 70 +19 +19 1014.6 924.0
01 19.08 Ю 3 н/о н/о +17.9 +13.1 73 +18 +18 1015.0 924.3
02 19.08 ЮВ 1 н/о н/о +17.0 +13.1 78 +18 +18 1015.1 924.2
03 19.08 штиль 0 н/о н/о +16.0 +12.0 77 +16 +16 1015.8 924.5
04 19.08 ЮЗ 1 н/о н/о +17.1 +12.3 73 +18 +18 1016.1 925.1
05 19.08 ЮВ 1 н/о осадки н/о +16.7 +13.9 84 +18 +18 1017.0 925.8 0.6
06 19.08 ЮВ 3 н/о ливневой дождь {осадки} н/о +15.9 +14.2 90 +15 +15 1018.2 926.7 +15.8 +24.1 1
07 19.08 ЮВ 1 н/о в посл. час осадки н/о +16.1 +14.7 91 +17 +17 1019.0 927.5 0.7
08 19.08 штиль 0 н/о осадки н/о +16.2 +15.0 93 +16 +16 1019.6 928.1 0.8
09 19.08 В 1 н/о в посл. час осадки {ливн. осадки} н/о +16.8 +15.2 90 +18 +18 1019.0 927.7 3
10 19.08 С 1 н/о в посл. час осадки н/о +19.6 +16.2 81 +23 +23 комфорт 1017.2 927.0 0.1
11 19.08 С 1 н/о в посл. час осадки н/о +20.1 +15.8 76 +24 +24 комфорт 1016.9 926.8 0.1
12 19.08 СВ 3 н/о {ливн. осадки} н/о +21.5 +14.8 66 +25 +25 комфорт 1016.6 926.9 3
13 19.08 С 3 н/о н/о +22.2 +14.8 63 +26 +26 душно 1015.9 926.5
14 19.08 С 3 н/о н/о +23.2 +14.5 58 +27 +27 душно 1015.1 926.0
15 19.08 СВ 2 н/о н/о +22.6 +13.9 58 +26 +26 жарко 1014.7 925.5
16 19.08 СЗ 1 н/о н/о +21.1 +14.7 67 +24 +24 комфорт 1015.5 925.8
17 19.08 В 2 н/о осадки н/о +17.5 +15.0 85 +18 +18 1018.4 927.4 4
18 19.08 Ю 1 н/о {осадки} н/о +16.5 +15.0 91 +17 +17 1019.0 927.6 +15.7 +23.7 7
19 19.08 ЮВ 2 н/о н/о +15.7 +14.4 92 +16 +16 1019.7 928.0
20 19.08 Ю 2 н/о н/о +15.3 +14.2 93 +15 +15 1020.4 928.5
21 19.08 ЮВ 1 н/о н/о +15.0 +14.0 94 +15 +15 1020.8 928.8
22 19.08 Ю 1 н/о осадки н/о +15.0 +14.1 94 +15 +15 1021.1 929.1 0.1
23 19.08 ЮВ 1 н/о в посл. час осадки н/о +15.1 +14.1 94 +16 +16 1021.3 929.3 0.1
00 20.08 штиль 0 н/о осадки {ливн. осадки} н/о +15.2 +14.2 94 +15 +15 1021.6 929.6 0.4
01 20.08 Ю 1 н/о в посл. час осадки н/о +15.4 +14.0 91 +16 +16 1021.7 929.7 0.4
02 20.08 Ю 1 н/о в посл. час осадки н/о +15.0 +14.1 94 +15 +15 1021.6 929.5 0.2
03 20.08 штиль 0 н/о {ливн. осадки} н/о +14.8 +13.9 94 +14 +14 1020.7 928.6 0.6
04 20.08 Ю 2 н/о н/о +14.7 +13.8 94 +14 +14 1020.7 928.6
05 20.08 З 1 н/о н/о +14.8 +13.9 94 +15 +15 1021.0 928.9
06 20.08 ЮВ 1 н/о осадки {ливн. осадки} н/о +15.0 +14.2 95 +15 +15 1021.0 929.0 +14.7 +16.8 1
07 20.08 ЮЗ 1 н/о осадки н/о +15.5 +14.5 94 +16 +16 1020.7 928.9 0.5
08 20.08 Ю 1 н/о осадки н/о +15.8 +14.3 91 +16 +16 1020.6 928.9 0.6
09 20.08 Ю 3 н/о ливневой дождь {осадки} н/о +16.5 +14.5 88 +16 +16 1020.6 929.1 1
10 20.08 ЮВ 1 н/о в посл. час осадки н/о +17.6 +15.0 85 +19 +19 1019.7 928.6 0.1
11 20.08 С 1 н/о в посл. час осадки н/о +18.2 +15.8 86 +20 +20 1019.0 928.2 0.1
12 20.08 СВ 1 н/о {ливн. осадки} н/о +19.7 +15.0 74 +23 +23 комфорт 1018.0 927.7 2
13 20.08 СЗ 1 н/о н/о +20.4 +14.6 69 +24 +24 комфорт 1017.6 927.5
14 20.08 штиль 0 н/о н/о +21.0 +15.4 70 +24 +24 комфорт 1017.2 927.3
15 20.08 штиль 0 н/о н/о +20.1 +15.9 77 +22 +22 комфорт 1017.2 927.1
16 20.08 З 1 н/о н/о +19.9 +15.9 78 +23 +23 комфорт 1017.7 927.5
17 20.08 З 3 н/о н/о +19.0 +10.8 59 +20 +20 1019.0 928.2
18 20.08 штиль 0 н/о н/о +17.5 +11.4 67 +18 +18 1020.4 929.1 +14.9 +21.4 2
19 20.08 С 2 н/о осадки н/о +15.7 +13.2 85 +16 +16 1022.5 930.5 0.9
20 20.08 С 2 н/о н/о +13.9 +12.7 92 +13 +13 1024.9 932.1 5
21 20.08 СЗ 1 н/о осадки н/о +13.5 +12.7 95 +14 +14 1025.7 932.7 9
22 20.08 СЗ 1 н/о в посл. час осадки н/о +13.2 +12.4 95 +13 +13 1026.0 932.9 1
23 20.08 штиль 0 н/о осадки н/о +13.5 +12.7 95 +13 +13 1026.1 933.1 1
00 21.08 СЗ 1 н/о в посл. час осадки {ливн. осадки} н/о +13.1 +12.3 95 +13 +13 1026.4 933.2 11
01 21.08 ЮВ 1 н/о осадки н/о +12.7 +11.7 94 +13 +13 1026.7 933.4 2
02 21.08 З 1 н/о осадки н/о +12.7 +11.9 95 +13 +13 1027.4 934.0 3
03 21.08 штиль 0 н/о осадки н/о +12.3 +11.5 95 +12 +12 1027.2 933.7 5
04 21.08 штиль 0 н/о ливневой дождь н/о +11.8 +11.1 95 +11 +11 1027.4 933.7 0.3
05 21.08 СЗ 1 н/о н/о +11.9 +11.2 95 +12 +12 1027.7 934.0 0.0
06 21.08 штиль 0 н/о {ливн. осадки} н/о +12.2 +11.6 96 +12 +12 1027.9 934.3 +11.8 +17.7 17
09 21.08 С 1 н/о н/о +14.2 +11.4 83 +15 +15 1027.0 934.1
10 21.08 СВ 3 н/о н/о +16.0 +11.9 77 +16 +16 1026.3 934.0
11 21.08 СВ 3 н/о н/о +17.1 +11.2 68 +17 +17 1025.4 933.5
12 21.08 СВ 3 н/о н/о +19.1 +10.7 58 +20 +20 1024.2 933.0
13 21.08 СВ 2 н/о н/о +18.2 +10.6 61 +19 +19 1024.2 932.7
14 21.08 СВ 4 н/о н/о +17.5 +11.0 66 +17 +17 1024.3 932.6
15 21.08 СВ 2 н/о н/о +17.4 +11.2 67 +18 +18 1024.3 932.6
16 21.08 СВ 2 н/о н/о +16.7 +11.3 70 +17 +17 1024.6 932.7
17 21.08 СЗ 1 н/о н/о +16.3 +11.8 75 +17 +17 1024.6 932.6
18 21.08 СЗ 1 н/о н/о +15.9 +11.3 74 +17 +17 1024.7 932.5 +12.1 +19.3
19 21.08 штиль 0 н/о н/о +15.5 +12.1 80 +15 +15 1025.8 933.4
20 21.08 Ю 2 н/о в посл. час осадки н/о +14.3 +12.5 89 +14 +14 1025.9 933.2 2
21 21.08 З 1 н/о {осадки} н/о +14.0 +12.9 93 +14 +14 1026.2 933.4 2
22 21.08 С 1 н/о н/о +13.8 +13.0 95 +14 +14 1026.4 933.5
23 21.08 З 1 н/о н/о +13.8 +13.0 95 +14 +14 1026.2 933.3
00 22.08 Ю 1 н/о {осадки} н/о +13.7 +12.9 95 +14 +14 1025.9 933.0 2
01 22.08 штиль 0 н/о н/о +13.6 +12.6 94 +13 +13 1025.5 932.6
02 22.08 ЮЗ 1 н/о н/о +13.6 +12.6 94 +14 +14 1025.0 932.1
03 22.08 ЮЗ 1 н/о н/о +13.6 +12.7 94 +14 +14 1024.7 931.9
04 22.08 Ю 1 н/о н/о +13.7 +12.3 91 +14 +14 1024.4 931.6
05 22.08 ЮЗ 1 н/о н/о +13.8 +11.7 87 +14 +14 1024.3 931.5
06 22.08 Ю 1 н/о н/о +14.2 +12.1 87 +15 +15 1024.5 931.8 +13.4 +16.0 2
07 22.08 ЮВ 1 н/о н/о +15.1 +12.2 83 +16 +16 1023.8 931.5
08 22.08 Ю 1 н/о н/о +17.7 +13.0 74 +19 +19 1022.8 931.4
09 22.08 В 1 н/о н/о +20.0 +13.4 66 +23 +23 комфорт 1021.7 931.1
10 22.08 С 1 н/о н/о +20.4 +14.7 70 +24 +24 комфорт 1021.3 930.9
11 22.08 С 1 н/о н/о +22.7 +15.0 62 +27 +27 душно 1019.7 930.1
12 22.08 С 2 н/о н/о +23.7 +14.9 58 +27 +27 жарко 1018.9 929.6
13 22.08 СВ 2 н/о н/о +25.5 +13.7 48 +28 +28 жарко 1017.8 929.1 0.0
14 22.08 СВ 3 н/о н/о +25.7 +13.2 46 +28 +28 жарко 1017.4 928.8
15 22.08 С 2 н/о н/о +25.2 +14.1 50 +28 +28 жарко 1017.4 928.7 0.0
16 22.08 СВ 2 н/о н/о +23.9 +14.5 56 +27 +27 жарко 1018.0 928.9
17 22.08 В 1 н/о н/о +22.9 +14.8 60 +27 +27 душно 1018.7 929.2
18 22.08 З 2 н/о н/о +21.4 +13.9 62 +24 +24 комфорт 1020.1 930.0 +13.9 +26.1 0.0
19 22.08 С 2 н/о н/о +19.1 +14.0 72 +21 +21 комфорт 1022.2 931.3
20 22.08 СЗ 1 н/о н/о +17.4 +13.5 78 +18 +18 1024.0 932.4
21 22.08 штиль 0 н/о н/о +16.4 +13.3 82 +16 +16 1025.0 933.0
22 22.08 СЗ 1 н/о н/о +16.4 +13.5 83 +17 +17 1025.2 933.2
23 22.08 штиль 0 н/о н/о +16.3 +13.5 83 +16 +16 1025.4 933.3
00 23.08 С 1 н/о н/о +16.2 +13.5 84 +17 +17 1025.1 933.0
01 23.08 СВ 1 н/о н/о +15.9 +13.4 85 +17 +17 1025.0 932.9
02 23.08 СЗ 1 н/о н/о +15.7 +13.3 86 +16 +16 1024.8 932.6
03 23.08 штиль 0 н/о н/о +15.6 +13.3 86 +15 +15 1024.5 932.3
04 23.08 штиль 0 н/о н/о +15.5 +13.6 88 +15 +15 1024.6 932.4
05 23.08 С 1 н/о н/о +15.5 +13.6 88 +16 +16 1024.6 932.4
06 23.08 штиль 0 н/о н/о +15.7 +13.7 88 +15 +15 1024.8 932.6 +15.5 +21.4
07 23.08 штиль 0 н/о н/о +16.2 +14.0 87 +16 +16 1024.7 932.7
08 23.08 штиль 0 н/о н/о +17.3 +13.5 78 +17 +17 1024.0 932.4
09 23.08 СВ 1 н/о н/о +18.5 +13.8 74 +20 +20 1023.3 932.1
10 23.08 В 1 н/о н/о +21.0 +12.9 60 +25 +25 комфорт 1021.8 931.4
11 23.08 штиль 0 н/о н/о +22.1 +13.6 59 +25 +25 комфорт 1020.4 930.5
12 23.08 С 1 н/о н/о +23.2 +15.1 60 +27 +27 душно 1019.1 929.7
13 23.08 СВ 3 н/о н/о +23.7 +15.9 62 +27 +27 жарко 1018.4 929.2
14 23.08 С 2 н/о н/о +23.7 +14.6 57 +26 +26 жарко 1018.2 929.0
15 23.08 СВ 2 н/о н/о +24.0 +16.3 62 +27 +27 жарко 1018.1 929.0 0.0
16 23.08 ЮВ 3 н/о в посл. час осадки н/о +21.2 +13.6 62 +24 +24 комфорт 1019.8 929.7 0.5
17 23.08 Ю 3 н/о осадки н/о +18.2 +14.8 81 +19 +19 1021.6 930.5 0.3
18 23.08 Ю 1 н/о в посл. час осадки {ливн. осадки} н/о +17.6 +15.3 86 +19 +19 1022.1 930.8 +15.7 +24.7 0.9
19 23.08 Ю 1 н/о н/о +17.0 +15.3 90 +18 +18 1022.6 931.1 0.0
20 23.08 ЮЗ 1 н/о н/о +16.8 +14.9 89 +18 +18 1022.8 931.2
21 23.08 Ю 1 н/о н/о +16.1 +14.7 91 +17 +17 1022.8 931.0 0.0
22 23.08 Ю 1 н/о н/о +16.0 +14.5 91 +17 +17 1022.6 930.7
23 23.08 ЮЗ 2 н/о н/о +15.5 +14.2 92 +15 +15 1022.7 930.7
00 24.08 Ю 1 н/о н/о +15.0 +13.9 93 +15 +15 1022.7 930.5 0.0
01 24.08 З 1 н/о н/о +14.6 +13.4 93 +15 +15 1022.8 930.5
02 24.08 Ю 2 н/о н/о +14.4 +13.4 94 +14 +14 1022.8 930.4
04 24.08 Ю 3 н/о н/о +14.8 +12.7 87 +14 +14 1022.7 930.4
05 24.08 Ю 3 н/о н/о +14.8 +12.5 86 +14 +14 1022.7 930.4
06 24.08 Ю 4 н/о н/о +15.0 +12.4 84 +14 +14 1022.6 930.4 +14.2 +17.7 0.0
07 24.08 Ю 3 н/о н/о +16.9 +12.7 76 +17 +17 1021.8 930.2
08 24.08 ЮВ 3 н/о н/о +19.1 +12.8 67 +20 +20 1020.7 929.9
09 24.08 ЮВ 3 н/о н/о +21.4 +13.0 59 +24 +24 комфорт 1019.3 929.3
10 24.08 З 1 н/о н/о +23.6 +14.4 56 +26 +26 жарко 1017.8 928.6
11 24.08 штиль 0 н/о н/о +25.2 +15.2 54 +28 +28 жарко 1016.6 928.0
12 24.08 З 1 н/о н/о +25.5 +15.1 53 +28 +28 жарко 1015.9 927.4
13 24.08 С 1 н/о н/о +23.9 +13.6 52 +26 +26 жарко 1015.9 926.9
14 24.08 З 2 н/о осадки н/о +21.7 +15.6 68 +25 +25 комфорт 1016.9 927.3 0.0
15 24.08 З 1 н/о в посл. час осадки н/о +20.8 +14.8 69 +25 +25 комфорт 1016.9 927.0 0.0
16 24.08 Ю 1 н/о н/о +21.8 +16.0 70 +26 +26 душно 1016.6 927.0
17 24.08 С 2 н/о н/о +21.1 +16.2 74 +24 +24 комфорт 1017.4 927.6
18 24.08 ЮВ 3 н/о {ливн. осадки} н/о +17.1 +15.2 89 +17 +17 1021.0 929.6 +14.7 +25.8 10
19 24.08 ЮВ 1 н/о осадки н/о +16.4 +15.4 94 +17 +17 1021.7 930.1 1
20 24.08 Ю 1 н/о осадки н/о +16.2 +15.1 93 +17 +17 1021.7 930.0 0.4
21 24.08 ЮЗ 1 н/о {осадки} н/о +16.0 +14.9 93 +17 +17 1021.9 930.1 2
22 24.08 ЮВ 2 н/о н/о +15.3 +14.5 95 +15 +15 1021.9 929.9
23 24.08 ЮЗ 1 н/о н/о +14.9 +14.0 94 +15 +15 1021.8 929.7
00 25.08 Ю 2 н/о {осадки} н/о +14.5 +13.7 95 +14 +14 1021.5 929.3 2
01 25.08 Ю 2 н/о н/о +14.1 +13.5 96 +13 +13 1021.7 929.3
02 25.08 ЮЗ 1 н/о н/о +13.7 +12.8 94 +14 +14 1021.7 929.2
03 25.08 Ю 1 н/о н/о +13.3 +12.6 96 +13 +13 1021.9 929.2
04 25.08 ЮЗ 1 н/о н/о +13.0 +12.0 94 +13 +13 1022.1 929.3
05 25.08 Ю 1 н/о н/о +13.1 +12.2 94 +13 +13 1022.1 929.3
06 25.08 ЮЗ 1 н/о н/о +13.5 +12.2 92 +14 +14 1022.2 929.5 +12.9 +17.2 2
07 25.08 ЮВ 1 н/о н/о +14.2 +12.3 88 +15 +15 1022.1 929.7
08 25.08 Ю 4 н/о н/о +17.1 +13.5 79 +17 +17 1020.6 929.2
09 25.08 ЮВ 3 н/о н/о +20.1 +13.8 67 +23 +23 комфорт 1019.2 928.8
10 25.08 СВ 1 н/о н/о +22.3 +13.7 58 +25 +25 комфорт 1017.7 928.1
11 25.08 штиль 0 н/о н/о +23.6 +15.0 59 +26 +26 жарко 1016.6 927.5
12 25.08 СВ 2 н/о н/о +24.4 +15.2 56 +27 +27 жарко 1015.8 927.0

 

Местоположение метеостанции Ландекк (Австрия): широта 47.13 долгота 10.57 высота над уровнем моря 806 м.

В архиве по умолчанию представлена погода в Ландекке за последнюю неделю. Архивные данные за месяц целиком и за предыдущие месяцы, начиная с января 2011 года, Вы можете получить, выбрав интересующий диапазон дат из раскрывающегося списка и нажав кнопку "Ввод!".


*Определитесь, кто Вы:
робот инопланетянин человек

Внимание! Время в таблицах - всемирное. Для получения местного времени необходимо прибавить поправку, которая равна 1 ч.

Смотрите также архив погоды в соседних городах и на ближайших метеорологических станциях:

Погода в Бранде (Австрия) (13 км)
Погода в Ишгле (Австрия) (25 км)
Погода в Гальциге (Австрия) (26 км)
Погода в Варте (Австрия) (32 км)
Погода в Пицтале (Австрия) (32 км)
Погода в Брунненкогеле (Австрия) (33 км)
Погода в Гальтюре (Австрия) (34 км)
Погода в Оберстдорфе (Германия) (37 км)
Погода на Налунс Шливера (Швейцария) (41 км)
Погода в Сан Валентино Алла Мута (Италия) (42 км)

Пояснения к столбцам:

Ветер - указаны скорость ветра в м/с - средняя за 10 мин, порывы в срок и между сроками (в фигурных скобках) и направление, откуда дует ветер: С - северный, СВ - северо-восточный, В - восточный, ЮВ - юго-восточный, Ю - южный, ЮЗ - юго-западный, З - западный, СЗ - северо-западный.
Видимость - горизонтальная дальность видимости в метрах или километрах. При видимости от 1 до 10 км при отсутствии осадков обычно наблюдается дымка, при ухудшении видимости до 1 км и менее - туман. В сухую погоду видимость может ухудшаться дымом, пылью или мглою.
Явления - указаны атмосферные явления, наблюдавшиеся в срок или в последний час перед сроком; фигурными скобками обозначены явления, наблюдавшиеся между сроками (за 1-3 часа до срока); квадратными скобками обозначены град или гололедные отложения с указанием их диаметра в мм.
Облачность - указаны через наклонную черту общая и нижняя облачность в баллах и высота нижней границы облаков в метрах; квадратными скобками обозначены формы облаков: Ci - перистые, Cs - перисто-слоистые, Cc - перисто-кучевые, Ac - высококучевые, As - высокослоистые, Sc - слоисто-кучевые, Ns - слоисто-дождевые, Cu - кучевые, Cb - кучево-дождевые. Подробнее классификацию облаков см. в Атласе облаков (PDF).
T - Температура воздуха - температура, измеренная на высоте 2 м над землей.
Td - Температура точки росы - температура, при понижении до которой содержащийся в воздухе водяной пар достигнет насыщения.
f - Относительная влажность воздуха - влажноcть воздуха, измеренная на высоте 2 м над землей.
Te - Эффективная температура - температура, которую ощущает одетый по сезону человек в тени. Характеристика душности погоды. При расчете учитывается влияние влажности воздуха и скорости ветра на теплоощущения человека.
Tes - Эффективная температура на солнце - температура, которую ощущает человек, с поправкой на солнечный нагрев. Характеристика знойности погоды. Зависит от высоты солнца над горизонтом, облачности и скорости ветра. Ночью, в пасмурную погоду, а также при ветре 12 м/с и более поправка равна нулю.
P - Атмосферное давление - приведенное к уровню моря атмосферное давление.
Po - Атмосферное давление - измеренное на уровне метеостанции атмосферное давление.
Tmin - Минимальная температура - минимум температуры воздуха на высоте 2 м над землей.
Tmax - Максимальная температура - максимум температуры воздуха на высоте 2 м над землей.
R - Количество осадков - Количество выпавших осадков за период времени, мм. При наведении курсора мыши на число - период времени, за который выпало указанное количество осадков.
R24 - Количество осадков - Количество выпавших осадков за 24 часа, мм.
S - Снежный покров - Высота снежного покрова, см. При наведении курсора мыши на число - состояние снежного покрова и степень покрытия местности в баллах.